SC

 

 

Sooner Challenge OLR - OPEN LOFT NO BIRDS FORCED OUT

Station: LOFT TRAINER - T Race

Distance: 1 Miles    

Release: 05-Aug-2022 09:27

Weather Release:    Arrival:

Wind at Release:     Wind at Arrival:

Temp at Release: °    Temp at Arrival: °

Lofts: 97

Birds: 400

Clocked: 352

Good Luck to Everyone!
Drops Pos Breeder Pigeon Name Color Sex Ent Arrival Speed To Win Elg PdHgRAOCPick
1 Dekeratry Loft - TX 1477-AU22-HOT BB H 1 09:30:05.72 568.598 00:00:00 Yes
2 Mccullough - NM 50901-AU22-ARPU RDCK H 1 09:30:09.51 557.197 00:00:04 Yes
3 Vasquez Lofts - CA 0166-AU22-VL BB H 1 09:30:40.48 478.933 00:00:35 Yes
4 Franklin Brothers Loft - OH 0432-AU22-IHC SILV H 1 09:30:41.59 476.556 00:00:36 Yes
5 Sooner Loft - OK 2070-AU22-ADA GRZL H 1 09:30:43.70 472.061 00:00:38 Yes
6 4 Broke Lofts - MO 2007-AU22-NERP BERONG CK H 1 09:30:52.13 454.918 00:00:46 Yes
7 Ken Easley - Pipa Elite Center - BE 0086-AU22-EASL BB H 1 09:30:53.99 451.301 00:00:48 Yes
8 Mike Hines - SD 2127-AU22-GPF Liberty CK H 1 09:30:56.32 446.833 00:00:51 Yes
9 Feathers Rest Loft - GA 0408-AU22-MEGA BB H 1 09:30:56.89 445.777 00:00:51 Yes
10 Family Loft - IN 0118-AU22-FAMI BB H 1 09:30:58.35 443.027 00:00:53 Yes
11 VicstromLoft - UT 2237-AU22-WICK WICK 37 BB C 1 09:31:00.94 438.283 00:00:55 Yes
12 Sewells Lofts - GA 0546-AU22-MEGA Windsweep CK H 1 09:31:01.19 437.829 00:00:55 Yes
13 Flying D Diva - TX 1638-IF22-FLYD DARK NIGHT - AZTEC 75 CK H 1 09:31:02.75 435.015 00:00:57 Yes
14 Warren Loft - NE 0600-AU22-WARR CK H 1 09:31:04.60 431.725 00:00:59 Yes
15 Malone Family Loft - IL 0713-AU22-MALO DKCK H 1 09:31:08.37 425.155 00:01:03 Yes
16 A P C Loft - TX 22374-AU22-APC BB H 1 09:31:08.70 424.608 00:01:03 Yes
17 One Oak - LA 6338-AU22-ARPU 5 BB H 1 09:31:08.82 424.403 00:01:03 Yes
18 Liberty Loft - MA 26835-AU22-FOYS CK H 1 09:31:10.05 422.316 00:01:04 Yes
19 Hollywood Lou Loft - FL 0907-AU22-HOLL BB H 1 09:31:11.27 420.248 00:01:06 Yes
20 C F L - LA 2030-AU22-CFL BB H 1 09:31:14.35 415.160 00:01:09 Yes
21 Goldstar Lofts Of Illinois - IL 2245-AU22-STAR Goldstar 2245 CK H 1 09:31:17.12 410.703 00:01:11 Yes
22 Dfl - MN 17001-AU22-ARPU GRZL H 1 09:31:17.34 410.336 00:01:12 Yes
23 R & D Racing 2 - ON 18941-AU22-JEDD BB H 1 09:31:17.47 410.129 00:01:12 Yes
24 C F L - LA 2049-AU22-CFL CK H 2 09:31:18.00 409.302 00:01:12 Yes
25 Dekeratry Loft - TX 1478-AU22-HOT BB H 2 09:31:20.43 405.468 00:01:15 Yes
26 Ken Easley & Son Racing - NM 0035-AU22-EASL Ice Cream Sandwich SPLA H 1 09:31:22.90 401.674 00:01:17 Yes
27 Five Oaks Loft - VA 0067-AU22-FOL BBWF H 1 09:31:24.00 400.000 00:01:18 Yes
28 4 Broke Lofts - MO 0787-AU22-MALO BB H 2 09:31:24.03 399.955 00:01:18 Yes
29 Five Oaks Loft - VA 0002-AU22-FOL BB H 2 09:31:24.09 399.864 00:01:18 Yes
30 Marian Taloi - OR 49283-AU22-JEDD CK H 1 09:31:25.10 398.340 00:01:19 Yes
31 Riverside Loft - NJ 1109-IF22-WVC 6119/116 CK H 1 09:31:27.01 395.491 00:01:21 Yes
32 Czechura Loft - IL 8656-AU22-CHIC BB H 1 09:31:28.96 392.623 00:01:23 Yes
33 Joe Zarachowicz - MD 0549-IF22-CCC BB H 1 09:31:30.32 390.634 00:01:25 Yes
34 Callahan Loft - MO 22191-AU22-AA DKCK H 1 09:31:31.64 388.750 00:01:26 Yes
35 Liberty Loft - MA 26826-AU22-FOYS BB H 2 09:31:34.61 384.545 00:01:29 Yes
36 GreatWall - MS 16709-AU22-TONY BB H 1 09:31:34.82 384.252 00:01:29 Yes
37 Apple Cup - WA 38905-AU22-JEDD BB H 1 09:31:35.44 383.373 00:01:30 Yes
38 4 Broke Lofts - MO 26104-AU22-FOYS BBWF H 3 09:31:38.35 379.365 00:01:33 Yes
39 Peach Classic - GA 15621-AU22-FOYS SOONER BE HERE CK H 1 09:31:40.89 375.948 00:01:35 Yes
40 Shirey Loft - PA 0227-IF22-HBG BB H 1 09:31:41.48 375.147 00:01:36 Yes
41 T C M - GA 0309-AU22-MEGA BBWF H 1 09:31:47.00 367.944 00:01:41 Yes
42 Van Den Bossche Brothers - ME 0271-IF22-VDB 9153/Lulu "lucky" BB H 1 09:31:50.31 363.749 00:01:45 Yes
43 Rick Barker - CA 0133-AU22-VIP BB H 1 09:31:51.92 361.743 00:01:46 Yes
44 Bruce Daehn - FL 0241-AU22-NWFI CK H 1 09:31:54.33 358.769 00:01:49 Yes
45 Untouchable Syndicate - KS 2229-AU22-CCCA BBWF H 1 09:31:54.45 358.623 00:01:49 Yes
46 Adams Loft - PA 2243-AU22-NEL BB H 1 09:31:57.90 354.481 00:01:52 Yes
47 Moss Loft - TX 0143-AU22-MOSS Top Flight BB H 1 09:31:58.01 354.351 00:01:52 Yes
48 Evolution One Loft - UT 0178-AU22-DYSO BB H 1 09:31:58.61 353.639 00:01:53 Yes
49 Liu s Loft - MO 0647-AU22-BAIZ BB H 1 09:32:00.00 351.988 00:01:54 Yes
50 Twin Points Loft - MD 1541-AU22-CAP CK H 1 09:32:02.58 348.987 00:01:57 Yes
51 Dfl - MN 17023-AU22-ARPU BLCK H 2 09:32:04.74 346.525 00:01:59 Yes
52 Andy Owen - GA 0251-AU22-AOWE BB H 1 09:32:06.36 344.681 00:02:01 Yes
53 Rueter Family Loft - OR 1039-AU22-CORP CK H 1 09:32:07.14 343.817 00:02:01 Yes
54 123 Bird Love to Fly Loft - CA 0235-AU22-BLTF BB H 1 09:32:09.90 340.755 00:02:04 Yes
55 Westfall Loft - MO 0266-AU22-WMW BB H 1 09:32:10.06 340.579 00:02:04 Yes
56 Little Reata Loft - TX 21621-AU22-JETT CK H 1 09:32:15.66 334.537 00:02:10 Yes
57 Kastle Loft - KY 2266-AU22-KAST Kastle Embo BB H 1 09:32:15.89 334.294 00:02:10 Yes
58 Columba Loft - GA 2393-AU22-LYNC BB H 1 09:32:25.69 324.235 00:02:20 Yes
59 Peach Classic - GA 15622-AU22-FOYS RED BUD BB H 2 09:32:26.79 323.143 00:02:21 Yes
60 Taiwan Loft - TX 0026-AU22-FORM CK H 1 09:32:36.20 314.099 00:02:30 Yes
61 Kelly Ward - IN 0106-AU22-FAMI BB H 1 09:32:38.54 311.918 00:02:33 Yes
62 Kastle Loft - KY 2224-AU22-KAST Kastle Fennec BB H 2 09:32:39.41 311.119 00:02:34 Yes
63 Kelly Ward - IN 0131-AU22-FAMI CKWF H 2 09:32:44.16 306.834 00:02:38 Yes
64 Franklin Brothers Loft - OH 0434-AU22-IHC CKWF H 2 09:32:46.09 305.123 00:02:40 Yes
65 Bruce Daehn - FL 0245-AU22-NWFI CKWF H 2 09:32:47.58 303.806 00:02:42 Yes
66 4 Broke Lofts - MO 2522-AU22-NERP JS EXPRESS BB H 4 09:32:49.71 301.964 00:02:44 Yes
67 Liberty Loft - MA 26839-AU22-FOYS BB H 3 09:32:49.96 301.749 00:02:44 Yes
68 Travis Boatman - MI 34636-AU22-JEDD GRZL H 1 09:32:50.97 300.872 00:02:45 Yes
69 House Of Paine - CA 0726-AU22-HOP GSF1897xGSF179 BB H 1 09:32:54.16 298.170 00:02:48 Yes
70 LaQu Lofts - MI 0005-AU22-LAQ CK H 1 09:32:54.42 297.943 00:02:49 Yes
71 Andy Owen - GA 0245-AU22-OWEN BB H 2 09:32:57.63 295.277 00:02:52 Yes
72 Rueter Family Loft - OR 1158-AU22-CORP BBWF H 2 09:32:58.98 294.159 00:02:53 Yes
73 Tx Lin Loft - TX 20299-AU22-AA CK H 1 09:32:59.01 294.142 00:02:53 Yes
74 Ken Easley & Son Racing - NM 0091-AU22-EASL Banana Split BB H 2 09:32:59.90 293.415 00:02:54 Yes
75 Warren Loft - NE 0606-AU22-WARR CK H 2 09:33:00.92 292.586 00:02:55 Yes
76 Ken Easley & Son Racing - NM 0056-AU22-EASL Creamsicle BB H 3 09:33:03.34 290.629 00:02:58 Yes
77 Adams Loft - PA 2227-AU22-NEL BB H 2 09:33:03.48 290.517 00:02:58 Yes
78 Westfall Loft - MO 0326-AU22-WMW BB H 2 09:33:04.00 290.110 00:02:58 Yes
79 Tx Lin Loft - TX 20266-AU22-AA BB H 2 09:33:05.87 288.627 00:03:00 Yes
80 Kelly Ward - IN 0096-AU22-FAMI CKWF H 3 09:33:11.33 284.376 00:03:06 Yes
81 Kolvenbag & Son - PA 1648-IF22-KOLV CK H 1 09:33:12.99 283.110 00:03:07 Yes
82 Joe Zarachowicz - MD 0547-IF22-CCC BB H 2 09:33:13.26 282.913 00:03:08 Yes
83 Parker's Loft - KY 64615-AU22-ARPU CK H 1 09:33:14.50 281.968 00:03:09 Yes
84 Little Reata Loft - TX 21626-AU22-JETT ANDL H 2 09:33:16.56 280.426 00:03:11 Yes
85 Florida Pigeon Derby - FL 0044-AU22-FURI BB H 1 09:33:25.90 273.646 00:03:20 Yes
86 Bionic Loft - LA 0223-AU22-CAJU BB H 1 09:33:26.74 273.052 00:03:21 Yes
87 Dickson Loft - OK 0404-AU22-DICK GRZL H 1 09:33:27.21 272.720 00:03:21 Yes
88 F.O.B. Lofts - RI 0090-AU22-FOB F.O.B. 90 CK H 1 09:33:29.68 270.992 00:03:24 Yes
89 Bert Worth USA Loft - OK 0423-IF22-USA BB H 1 09:33:30.31 270.547 00:03:25 Yes
90 Apple Cup - WA 38908-AU22-JEDD BB H 2 09:33:30.93 270.125 00:03:25 Yes
91 Joe Zarachowicz - MD 0548-IF22-CCC BB H 3 09:33:31.84 269.498 00:03:26 Yes
92 Lone Oak Loft - TX 2218-AU22-LOL Ace-Soonie-4 BB H 1 09:33:36.49 266.330 00:03:31 Yes
93 4 Broke Lofts - MO 2530-AU22-NERP DEVIL 505 BB H 5 09:33:36.53 266.304 00:03:31 Yes
94 4 Broke Lofts - MO 0107-AU22-MRPC GRZL H 6 09:33:39.03 264.642 00:03:33 Yes
95 R & D Racing 2 - ON 6840-CU22-CRPU BB H 2 09:33:40.35 263.763 00:03:35 Yes
96 Ken Easley - Pipa Elite Center - BE 0084-AU22-EASL SPLA H 2 09:33:41.81 262.811 00:03:36 Yes
97 4 Broke Lofts - MO 2008-AU22-NERP LUDOCRIS CK H 7 09:33:43.81 261.509 00:03:38 Yes
98 Twin Points Loft - MD 24212-AU22-AA BB H 2 09:33:50.26 257.398 00:03:45 Yes
99 Wartick Family Loft - KS 19556-AU22-ARPU CKWF H 1 09:34:05.39 248.237 00:04:00 Yes
100 Adams Loft - PA 2231-AU22-NEL BB H 3 09:34:06.72 247.469 00:04:01 Yes

There are 352 bird records

Note: These Race Results are unofficial and subject to change until verified by the Race Committee and declared final.